STARLINK-33838, 63500

Orbit data source: Space-Track

STARLINK-33838, 63500 is a payload satellite owned by SpaceX/Seattle (US) in LEO that was launched on Mon, 07 Apr 2025 UTC via an FALCON 9 launch vehicle from the Air Force Western Test Range (AFWTR). Payload-class satellites include a variety of spacecraft equipped with specific instruments for various scientific and technological missions. These include communications satellites like Starlink; space stations such as the ISS; scientific satellites like the Hubble; Earth observation satellites from companies like Planet Labs, Umbra, and HawkEye 360; GPS; miniature CubeSats for education and research; and military/defense satellites.

Loading next visibility...
Identifier
63500, 2025-071H
Orbit
LEO
Last TLE update
11 hours ago
Origin
Manufacturer
SpaceX/Seattle
Mission
Operational Commercial Communications
Bus & Motor
STARLINK V2MO, Unknown motor
Mass
575 kg wet, ~530 kg dry
Launch date (UTC)
2025-04-07 (3 months ago)
Launch vehicle
FALCON 9
Launch site
Air Force Western Test Range (AFWTR)
Object type
Payload
Rocket body
Debris
Shape & HBR
Box + 1 Pan, 29 m
Radar Cross Section
41.120 m², Large (>1 m²)

Expand to show TLE details & history

TLE from 11 hours ago
0 STARLINK-33838
1 63500U 25071H   25183.80808180  .00022478  00000-0  56931-3 0  9991
2 63500  53.1575 221.1848 0001180  53.3758 306.7355 15.39671082 14296
Epoch: 2025-07-02T19:23Z
TLE epoch observation values (Epoch: 2025-07-02T19:23:38.267Z)
Latitude
-0.00004°
Longitude
9.19145°
Altitude
447.503 km
Speed
7.645 km/s
True Right ascension
14h 44m 44s
True Declination
0° 00' 00"
Sunlit
Object was in full shadow at epoch
Visualization orbit readout
Latitude
37.82137°
Longitude
151.60086°
Altitude
449.949 km
Speed
7.647 km/s
Apparent Right ascension
03h 13m 35s
Apparent Declination
0° 47' 09"
Sunlit
Object is in daylight
Visualization observer readout
Local Sidereal Time
18:37:27
Azimuth
61.909° ENE
Elevation
-28.305°
Doppler factor
1
Orbital elements
Apogee altitude
448.144 km
Perigee altitude
446.534 km
Semi-major axis
6,825.476 km
Eccentricity
0.00012
Inclination
53.1575°
RAAN
221.1848°
Arg. of periapsis
53.3758°
True anomaly
Unknown
Mean anomaly
306.7355°
Eccentric anomaly
Unknown
Mean motion
3.84896 °/min
Orbital period
93.53 mins
BSTAR
0.00056931
Loading maneuver chart data...
Loading SW <> Apogee altitude chart data...
Loading historical data...
Loading historical data...
Loading historical data...
Loading historical data...
Loading historical data...
Loading historical data...
Loading historical data...

STARLINK-33838 Visibility forecast

Observer location: undefined°, undefined°

Span
Click to sort rows by Start time (UTC) header in descending order
Start Az.
Max El. time (UTC)
Max El. Az.
Max El.
End time (UTC)
End Az.
5 mins2025-07-03 11:27:42.957Z336.029° NNW2025-07-03 11:29:42.957Z38.458° NE31.582°2025-07-03 11:32:42.957Z102.529° ESE
5 mins2025-07-04 04:16:42.957Z183.663° SSW2025-07-04 04:18:42.957Z131.971° SE26.767°2025-07-04 04:21:42.957Z70.108° E
4 mins2025-07-04 05:54:42.957Z289.873° WNW2025-07-04 05:55:42.957Z319.967° NNW27.115°2025-07-04 05:58:42.957Z30.245° NE
|